[[{"header":{"parameterUnit":"m.s-1","parameterCategory":1,"la1":30.2991,"la2":30.254,"lo1":-89.0895,"lo2":-89.0444,"dy":0.0017,"dx":0.0017,"nx":28,"ny":28,"refTime":"2026-01-30T09:00:00:Z","depth":0,"parameterNumber":2,"parameterNumberName":"U-component_of_WINDS"},"data":[0,0,0,0,0,0,0,0,0,0,0,0,0,0,0,0,0,0,0,0,0,0,0,0,0,0,0,0,0,0,0,0,0,0,0,0,0,0,0,0,0,0,0,0,0,0,0,0,0,0,0,0,0,0,0,0,0,0,-2.2007,-2.2007,0,-2.2058,-2.2059,-2.2059,-2.1997,-2.1995,-2.1992,-2.199,-2.2043,-2.2047,-2.205,0,0,0,0,0,0,0,0,0,0,0,0,0,-2.1854,-2.1857,-2.2007,-2.2007,-2.2008,-2.2058,-2.2059,-2.206,-2.1997,-2.1994,-2.1992,-2.1989,-2.2042,-2.2047,-2.2051,0,0,0,0,0,0,0,0,0,0,0,0,0,-2.1914,-2.1858,-2.2006,-2.1983,-2.1981,-2.2058,-2.2059,-2.206,-2.1998,-2.1994,-2.1991,-2.1988,-2.2041,-2.2046,-2.2051,-2.2154,0,0,-2.2068,-2.207,0,0,0,0,0,0,0,0,-2.1911,-2.192,-2.1986,-2.1985,-2.1983,-2.2018,-2.2024,-2.2091,-2.1999,-2.1992,-2.199,-2.1986,-2.2038,-2.2043,-2.206,-2.2157,-2.2159,-2.2068,-2.2072,-2.2074,-2.2075,0,0,0,0,0,0,0,-2.1907,-2.1917,-2.2027,-2.1987,-2.1985,-2.197,-2.1974,-2.2037,-2.2034,-2.1992,-2.1988,-2.1994,-2.2036,-2.2055,-2.2061,-2.216,-2.2068,-2.2073,-2.2076,-2.2078,-2.2341,-2.2344,0,0,0,0,0,0,-2.1905,-2.1914,-2.2025,-2.2029,-2.1938,-2.1975,-2.198,-2.201,-2.2033,-2.2033,-2.1997,-2.1991,-2.2048,-2.2055,-2.2063,-2.2183,-2.2074,-2.2079,-2.2082,-2.2337,-2.2341,-2.2346,0,0,0,0,0,0,-2.1902,-2.1916,-2.2023,-2.197,-2.1983,-2.1981,-2.2015,-2.2013,-2.2032,-2.2037,-2.2036,-2.2018,-2.2045,-2.2055,-2.2131,-2.2184,-2.2081,-2.2086,-2.2333,-2.2338,-2.2344,-2.2425,0,0,0,0,0,0,-2.1898,-2.1915,-2.1954,-2.1972,-2.1986,-2.2091,-2.2018,-2.2016,-2.2041,-2.2034,-2.2055,-2.2056,-2.2044,-2.2124,-2.2137,-2.2189,-2.209,-2.2328,-2.2335,-2.2342,-2.2418,-2.2433,-2.2446,0,0,0,0,0,-2.1893,-2.1976,-2.1957,-2.197,-2.2035,-2.2094,-2.2103,-2.2087,-2.2046,-2.2085,-2.2088,-2.2055,-2.2177,-2.2132,-2.2146,-2.2201,-2.2324,-2.2333,-2.2341,-2.2411,-2.243,-2.2445,0,0,0,0,0,0,-2.1965,-2.1977,-2.1956,-2.2047,-2.207,-2.2084,-2.2133,-2.2107,-2.2142,-2.2134,-2.2113,-2.2118,-2.2199,-2.2208,-2.2158,-2.2301,-2.2244,-2.2255,-2.2292,-2.231,-2.2323,-2.2319,-2.2095,0,0,0,0,0,-2.1991,-2.2039,-2.2047,-2.2127,-2.2139,-2.2134,-2.216,-2.2145,-2.2168,-2.2178,-2.2186,-2.221,-2.2253,-2.2282,-2.2322,-2.2419,-2.2422,-2.2464,-2.2478,-2.2489,-2.2499,-2.2549,-2.2567,-2.2373,-2.2373,-2.2373,0,0,-2.2046,-2.2059,-2.209,-2.2141,-2.2157,-2.2206,-2.2143,-2.2198,-2.2234,-2.2186,-2.2258,-2.2265,-2.229,-2.2377,-2.2415,-2.2386,-2.2554,-2.25,-2.2509,-2.2513,-2.256,-2.2578,-2.2594,-2.2379,-2.2378,-2.2377,0,0,-2.2171,-2.2186,-2.2253,-2.227,-2.2295,-2.2291,-2.2308,-2.2325,-2.2328,-2.24,-2.2364,-2.2407,-2.2483,-2.2501,-2.2521,-2.2652,-2.2622,-2.2666,-2.2739,-2.2788,-2.2803,-2.2816,-2.2861,-2.2878,-2.2676,-2.2676,-2.2676,0,-2.2236,-2.2309,-2.2291,-2.2348,-2.2371,-2.233,-2.2397,-2.2415,-2.2452,-2.2468,-2.2436,-2.2529,-2.2543,-2.2632,-2.2664,-2.2682,-2.2698,-2.2663,-2.2802,-2.2815,-2.2828,-2.287,-2.2887,-2.2681,-2.2681,-2.268,-2.268,0,-2.2387,-2.2438,-2.2489,-2.2525,-2.2554,-2.2616,-2.2607,-2.2638,-2.2622,-2.2621,-2.2694,-2.2709,-2.2751,-2.2772,-2.2756,-2.2858,-2.284,-2.2805,-2.2747,-2.2851,-2.2891,-2.2907,-2.2688,-2.2686,-2.2685,-2.2684,0,0,-2.2558,-2.2583,-2.2602,-2.2617,-2.2641,-2.268,-2.274,-2.2781,-2.2807,-2.2835,-2.2883,-2.2948,-2.2915,-2.2938,-2.2924,-2.2967,-2.3068,-2.2927,-2.2927,-2.2951,-2.3179,-2.3204,-2.3223,-2.3049,-2.3052,-2.3055,-2.3177,0,-2.2682,-2.2785,-2.277,-2.2869,-2.2915,-2.2877,-2.2929,-2.2949,-2.295,-2.2989,-2.299,-2.3035,-2.2991,-2.3003,-2.3045,-2.3047,-2.3113,-2.3038,-2.3093,-2.3095,-2.3086,-2.3244,-2.327,-2.3384,-2.3192,-2.3195,-2.3197,0,-2.284,-2.2871,-2.2975,-2.2991,-2.301,-2.3057,-2.3092,-2.313,-2.3152,-2.315,-2.3174,-2.3153,-2.3212,-2.3153,-2.3234,-2.3183,-2.3205,-2.321,-2.3214,-2.3216,-2.3151,-2.3249,-2.342,-2.3437,-2.3221,-2.3219,-2.3218,0,-2.2951,-2.3021,-2.3091,-2.3105,-2.3126,-2.316,-2.317,-2.3189,-2.3214,-2.3245,-2.326,-2.3299,-2.3319,-2.3348,-2.3337,-2.3296,-2.3419,-2.336,-2.3418,-2.3418,-2.3444,-2.3442,-2.3619,-2.3461,-2.3461,-2.3461,-2.3461,0,-2.309,-2.3154,-2.3141,-2.3184,-2.3255,-2.3238,-2.3308,-2.3314,-2.333,-2.3373,-2.3343,-2.3384,-2.3368,-2.3408,-2.34,-2.3466,-2.3477,-2.3475,-2.3472,-2.3477,-2.3477,-2.3489,-2.348,-2.3465,-2.3464,-2.3464,-2.3463,0,-2.3226,-2.322,-2.3294,-2.3308,-2.3312,-2.3364,-2.3375,-2.3415,-2.3414,-2.3469,-2.3481,-2.3479,-2.3524,-2.3516,-2.3567,-2.3561,-2.3643,-2.3632,-2.3636,-2.3632,-2.3689,-2.3683,-2.3878,-2.3902,-2.3732,-2.3733,-2.3735,0,-2.3314,-2.3362,-2.3381,-2.3407,-2.342,-2.3463,-2.3488,-2.3473,-2.35,-2.3528,-2.3565,-2.3607,-2.364,-2.3714,-2.3717,-2.3755,-2.3742,-2.3808,-2.3748,-2.375,-2.3741,-2.3737,-2.3741,-2.382,-2.3822,-2.3823,-2.3824,0,-2.3469,-2.3464,-2.3501,-2.3537,-2.3567,-2.3595,-2.362,-2.3643,-2.363,-2.3662,-2.3708,-2.3734,-2.3784,-2.3826,-2.3862,-2.3872,-2.3846,-2.3844,-2.3858,-2.3863,-2.3862,-2.3861,-2.3666,-2.3839,-2.3837,-2.3836,-2.3836,-2.3835,-2.3582,-2.3623,-2.3642,-2.3684,-2.3701,-2.3724,-2.3762,-2.3765,-2.3803,-2.3843,-2.3832,-2.3883,-2.3903,-2.3948,-2.3962,-2.4001,-2.3977,-2.3999,-2.4004,-2.4009,-2.4015,-2.3858,-2.4008,-2.4008,-2.4007,-2.4007,-2.4007,0,-2.3734,-2.3744,-2.3783,-2.3818,-2.3851,-2.3825,-2.385,-2.3879,-2.3925,-2.3946,-2.3978,-2.403,-2.4071,-2.4077,-2.4115,-2.4145,-2.4134,-2.4155,-2.4152,-2.4154,-2.4036,-2.4018,-2.4163,-2.4163,-2.4163,-2.4163,-2.4163,-2.4163,-2.3817,-2.3883,-2.388,-2.3954,-2.3964,-2.4014,-2.4031,-2.4052,-2.4068,-2.4127,-2.416,-2.4164,-2.4179,-2.4217,-2.4253,-2.4253,-2.4268,-2.4293,-2.4289,-2.4178,-2.4163,-2.4147,-2.4131,-2.4297,-2.4298,-2.4404,-2.4405,-2.4405]},{"header":{"parameterUnit":"m.s-1","parameterCategory":1,"la1":30.2991,"la2":30.254,"lo1":-89.0895,"lo2":-89.0444,"dy":0.0017,"dx":0.0017,"nx":28,"ny":28,"refTime":"2026-01-30T09:00:00:Z","depth":0,"parameterNumber":3,"parameterNumberName":"V-component_of_WINDS"},"data":[0,0,0,0,0,0,0,0,0,0,0,0,0,0,0,0,0,0,0,0,0,0,0,0,0,0,0,0,0,0,0,0,0,0,0,0,0,0,0,0,0,0,0,0,0,0,0,0,0,0,0,0,0,0,0,0,0,0,-1.9567,-1.9568,0,-1.9625,-1.9626,-1.9626,-1.9626,-1.9625,-1.9624,-1.9624,-1.9681,-1.9684,-1.9686,0,0,0,0,0,0,0,0,0,0,0,0,0,-1.9453,-1.9456,-1.9567,-1.9568,-1.9568,-1.9625,-1.9626,-1.9627,-1.9626,-1.9625,-1.9624,-1.9623,-1.9681,-1.9683,-1.9686,0,0,0,0,0,0,0,0,0,0,0,0,0,-1.9506,-1.9456,-1.9567,-1.9575,-1.9576,-1.9625,-1.9626,-1.9627,-1.9626,-1.9625,-1.9624,-1.9623,-1.968,-1.9683,-1.9686,-1.973,0,0,-1.9697,-1.9698,0,0,0,0,0,0,0,0,-1.9503,-1.951,-1.9573,-1.9575,-1.9576,-1.9617,-1.9607,-1.9661,-1.9627,-1.9607,-1.9624,-1.9622,-1.9661,-1.9666,-1.9679,-1.9733,-1.9735,-1.9697,-1.9699,-1.97,-1.9701,0,0,0,0,0,0,0,-1.95,-1.9508,-1.959,-1.9574,-1.9576,-1.9575,-1.9581,-1.9617,-1.964,-1.9609,-1.9609,-1.9616,-1.9661,-1.9676,-1.968,-1.9736,-1.9697,-1.97,-1.9702,-1.9703,-1.9828,-1.9829,0,0,0,0,0,0,-1.9495,-1.9505,-1.9588,-1.9592,-1.9536,-1.9578,-1.9585,-1.9605,-1.9639,-1.9643,-1.9617,-1.9616,-1.9671,-1.9676,-1.9682,-1.9735,-1.97,-1.9704,-1.9705,-1.9827,-1.9828,-1.983,0,0,0,0,0,0,-1.9492,-1.9502,-1.9586,-1.9548,-1.9559,-1.9581,-1.9604,-1.9607,-1.9621,-1.9645,-1.9649,-1.9628,-1.967,-1.9678,-1.9718,-1.9737,-1.9705,-1.9708,-1.9825,-1.9827,-1.9829,-1.9842,0,0,0,0,0,0,-1.9489,-1.9501,-1.9518,-1.9549,-1.9561,-1.9621,-1.9605,-1.9609,-1.9627,-1.9626,-1.9656,-1.966,-1.967,-1.9713,-1.9722,-1.9741,-1.9711,-1.9823,-1.9826,-1.9828,-1.984,-1.9844,-1.9848,0,0,0,0,0,-1.9485,-1.952,-1.9519,-1.9529,-1.9583,-1.9622,-1.9629,-1.964,-1.9629,-1.9646,-1.9662,-1.9659,-1.9734,-1.9717,-1.9727,-1.9748,-1.9822,-1.9825,-1.9828,-1.9838,-1.9843,-1.9848,0,0,0,0,0,0,-1.949,-1.9524,-1.9524,-1.957,-1.9593,-1.9622,-1.9644,-1.9645,-1.9672,-1.967,-1.9681,-1.9688,-1.9728,-1.9742,-1.9723,-1.9792,-1.9777,-1.9782,-1.9781,-1.9786,-1.979,-1.9785,-1.9714,0,0,0,0,0,-1.9497,-1.9527,-1.9554,-1.9591,-1.9603,-1.9622,-1.9639,-1.9645,-1.967,-1.968,-1.9698,-1.9722,-1.9751,-1.9769,-1.9797,-1.9842,-1.9848,-1.9861,-1.9865,-1.9868,-1.9872,-1.9896,-1.9902,-1.9839,-1.9839,-1.9839,0,0,-1.9511,-1.9533,-1.9551,-1.9593,-1.9612,-1.9642,-1.963,-1.9662,-1.9684,-1.9685,-1.9724,-1.9738,-1.9765,-1.9808,-1.9828,-1.9821,-1.9891,-1.9872,-1.9874,-1.9876,-1.99,-1.9906,-1.9911,-1.9841,-1.9841,-1.984,0,0,-1.9551,-1.9571,-1.9604,-1.9624,-1.9653,-1.9665,-1.9673,-1.9702,-1.9711,-1.9751,-1.9752,-1.9778,-1.9827,-1.9846,-1.9863,-1.991,-1.9908,-1.9918,-1.9939,-1.9962,-1.9967,-1.9971,-1.9988,-1.9993,-1.9922,-1.9922,-1.9922,0,-1.9564,-1.961,-1.9621,-1.9653,-1.9672,-1.9674,-1.9707,-1.9725,-1.9762,-1.9774,-1.9766,-1.9828,-1.9846,-1.9893,-1.9905,-1.9918,-1.9927,-1.9915,-1.9966,-1.997,-1.9974,-1.999,-1.9996,-1.9923,-1.9923,-1.9923,-1.9923,0,-1.9624,-1.9656,-1.9679,-1.9715,-1.9736,-1.9768,-1.9784,-1.9804,-1.9808,-1.9821,-1.9861,-1.9883,-1.9915,-1.9927,-1.9931,-1.9974,-1.9969,-1.9963,-1.9948,-1.9981,-1.9996,-2.0002,-1.9925,-1.9924,-1.9924,-1.9924,0,0,-1.9669,-1.9711,-1.9719,-1.9735,-1.9768,-1.9792,-1.9824,-1.9856,-1.9873,-1.9898,-1.9925,-1.9966,-1.9961,-1.9979,-1.9986,-2.0006,-2.0042,-1.9998,-1.9999,-2.0005,-2.009,-2.0094,-2.01,-2.0041,-2.0042,-2.0043,-2.0087,0,-1.9712,-1.9771,-1.9782,-1.9832,-1.9861,-1.9863,-1.9892,-1.9914,-1.9927,-1.9952,-1.9966,-1.9995,-1.9986,-1.9997,-2.0018,-2.0033,-2.0059,-2.003,-2.0066,-2.0067,-2.0058,-2.0108,-2.0113,-2.0153,-2.0093,-2.0094,-2.0095,0,-1.9771,-1.9798,-1.9851,-1.9879,-1.9892,-1.9917,-1.9947,-1.9972,-1.9997,-2.0004,-2.0025,-2.0029,-2.0062,-2.0046,-2.0091,-2.0071,-2.0086,-2.0096,-2.0098,-2.0101,-2.0082,-2.0112,-2.0166,-2.0172,-2.0104,-2.0104,-2.0103,0,-1.9797,-1.9847,-1.9885,-1.9899,-1.9933,-1.995,-1.9965,-1.999,-2.0008,-2.0034,-2.0046,-2.0075,-2.0091,-2.0113,-2.0125,-2.0112,-2.0169,-2.0154,-2.0175,-2.0175,-2.0187,-2.0186,-2.0243,-2.0197,-2.0197,-2.0197,-2.0197,0,-1.9844,-1.9876,-1.9898,-1.9921,-1.9957,-1.9969,-2.0005,-2.0019,-2.0041,-2.0066,-2.007,-2.0094,-2.0108,-2.0134,-2.0143,-2.0179,-2.0186,-2.0193,-2.0195,-2.0192,-2.0191,-2.0202,-2.0199,-2.0199,-2.0198,-2.0198,-2.0198,0,-1.988,-1.9896,-1.9937,-1.9966,-1.9974,-1.9999,-2.0024,-2.0046,-2.0059,-2.0091,-2.01,-2.0119,-2.015,-2.0164,-2.0201,-2.0207,-2.0248,-2.0248,-2.0239,-2.024,-2.0261,-2.0258,-2.0327,-2.0336,-2.0284,-2.0285,-2.0285,0,-1.9908,-1.9934,-1.9965,-1.9983,-1.9998,-2.0027,-2.0046,-2.0059,-2.0078,-2.0109,-2.0127,-2.0158,-2.0183,-2.0232,-2.0249,-2.0278,-2.0278,-2.03,-2.0282,-2.0279,-2.0278,-2.0276,-2.0278,-2.0303,-2.0304,-2.0304,-2.0304,0,-1.9957,-1.9964,-1.9991,-2.0021,-2.0044,-2.0068,-2.0092,-2.0106,-2.0122,-2.0144,-2.0175,-2.0195,-2.0233,-2.0264,-2.0293,-2.0308,-2.0309,-2.031,-2.0316,-2.0314,-2.0308,-2.0311,-2.0248,-2.0308,-2.0308,-2.0308,-2.0307,-2.0307,-1.999,-2.0012,-2.0038,-2.0068,-2.0087,-2.0109,-2.0132,-2.0147,-2.0174,-2.0207,-2.0213,-2.0246,-2.027,-2.031,-2.0326,-2.0352,-2.0347,-2.0356,-2.0358,-2.036,-2.0361,-2.0304,-2.0357,-2.0357,-2.0357,-2.0357,-2.0357,0,-2.0038,-2.0055,-2.0083,-2.0116,-2.014,-2.0139,-2.0165,-2.0185,-2.0215,-2.0237,-2.0262,-2.0298,-2.0328,-2.0347,-2.0377,-2.0394,-2.0395,-2.0401,-2.0399,-2.0403,-2.0365,-2.0356,-2.0399,-2.0399,-2.0399,-2.0399,-2.0399,-2.0399,-2.0066,-2.0104,-2.0113,-2.016,-2.0177,-2.021,-2.0225,-2.0245,-2.0263,-2.0303,-2.0328,-2.0341,-2.0362,-2.0393,-2.042,-2.0425,-2.0435,-2.0441,-2.0446,-2.041,-2.0405,-2.0401,-2.0393,-2.0444,-2.0444,-2.0482,-2.0482,-2.0482]}]]